Probability
0 0 0 0 0 0 0 0 0 0 0 0 0 0 0 0 0 0 0 0 0 0 0 0 0 0 0 0 0 0 0 0 0 0 0 0 0 0 0 0 0 0 0 0
0 0 0 0 0 0 0 0 0 0 0 0 0 0 0 0 0 0 0 0 0 0 0 0 0 0 0 0 0 0 0 0 0 0 0 0 0 0 0 0 0 0 0 0
0 0 0 0 0 0 0 0 0 0 0 0 0 0 0 0 0 0 0 0 0 0 0 0 0 0 0 0 0 0 0 0 0 0 0 0 0 0 0 0 0 0 0 0
0 0 0 0 0 0 0 0 0 0 0 0 0 0 0 0 0 0 0 0 0 0 0 0 0 0 0 0 0 0 0 0 0 0 0 0 0 0 0 0 0 0 0 0
0 0 0 0 0 0 0 0 0 0 0 0 0 0 0 0 0 0 0 0 0 0 0 0 0 0 0 0 0 0 0 0 0 0 0 0 0 0 0 0 0 0 0 0
0 0 0 0 0 0 0 0 0 0 0 0 0 0 0 0 0 0 0 0 0 0 0 0 0 0 0 0 0 0 0 0 0 0 0 0 0 0 0 0 0 0 0 0
0 0 0 0 0 0 0 0 0 0 0 0 0 0 0 0 0 0 0 0 0 0 0 0 0 0 0 0 0 0 0 0 0 0 0 0 0 0 0 0 0 0 0 0
0 0 0 0 0 0 0 0 0 0 0 0 0 0 0 0 0 0 0 0 0 0 0 0 0 0 0 0 0 0 0 0 0 0 0 0 0 0 0 0 0 0 0 0
0 0 0 0 0 0 0 0 0 0 0 0 0 0 0 0 0 0 0 0 0 0 0 0 0 0 0 0 0 0 0 0 0 0 0 0 0 0 0 0 0 0 0 0
0 0 0 0 0 0 0 0 0 0 0 0 0 0 0 0 0 0 0 0 0 0 0 0 0 0 0 0 0 0 0 0 0 0 0 0 0 0 0 0 0 0 0 0
0 0 0 0 0 0 0 0 0 0 0 0 0 0 0 0 0 0 0 0 0 0 0 0 0 0 0 0 0 0 0 0 0 0 0 0 0 0 0 0 0 0 0 0
0 0 0 0 0 0 0 0 0 0 0 0 0 0 0 0 0 0 0 0 0 0 0 0 0 0 0 0 0 0 0 0 0 0 0 0 0 0 0 0 0 0 0 0
0 0 0 0 0 0 0 0 0 0 0 0 0 0 0 0 0 0 0 0 0 0 0 0 0 0 0 0 0 0 0 0 0 0 0 0 0 0 0 0 0 0 0 0
0 0 0 0 0 0 0 0 0 0 0 0 0 0 0 0 0 0 0 0 0 0 0 0 0 0 0 0 0 0 0 0 0 0 0 0 0 0 0 0 0 0 0 0
0 0 0 0 0 0 0 0 0 0 0 0 0 0 0 0 0 0 0 0 0 0 0 0 0 0 0 0 0 0 0 0 0 0 0 0 0 0 0 0 0 0 0 0
0 0 0 0 0 0 0 0 0 0 0 0 0 0 0 0 0 0 0 0 0 0 0 0 0 0 0 0 0 0 0 0 0 0 0 0 0 0 0 0 0 0 0 0
0 0 0 0 0 0 0 0 0 0 0 0 0 0 0 0 0 0 0 0 0 0 0 0 0 0 0 0 0 0 0 0 0 0 0 0 0 0 0 0 0 0 0 0
0 0 0 0 0 0 0 0 0 0 0 0 0 0 0 0 0 0 0 0 0 0 0 0 0 0 0 0 0 0 0 0 0 0 0 0 0 0 0 0 0 0 0 0
0 0 0 0 0 0 0 0 0 0 0 0 0 0 0 0 0 0 0 0 0 0 0 0 0 0 0 0 0 0 0 0 0 0 0 0 0 0 0 0 0 0 0 0
0 0 0 0 0 0 0 0 0 0 0 0 0 0 0 0 0 0 0 0 0 0 0 0 0 0 0 0 0 0 0 0 0 0 0 0 0 0 0 0 0 0 0 0
0 0 0 0 0 0 0 0 0 0 0 0 0 0 0 0 0 0 0 0 0 0 0 0 0 0 0 0 0 0 0 0 0 0 0 0 0 0 0 0 0 0 0 0
0 0 0 0 0 0 0 0 0 0 0 0 0 0 0 0 0 0 0 0 0 0 0 0 0 0 0 0 0 0 0 0 0 0 0 0 0 0 0 0 0 0 0 0
0 0 0 0 0 0 0 0 0 0 0 0 0 0 0 0 0 0 0 0 0 0 0 0 0 0 0 0 0 0 0 0 0 0 0 0 0 0 0 0 0 0 0 0
0 0 0 0 0 0 0 0 0 0 0 0 0 0 0 0 0 0 0 0 0 0 0 0 0 0 0 0 0 0 0 0 0 0 0 0 0 0 0 0 0 0 0 0
0 0 0 0 0 0 0 0 0 0 0 0 0 0 0 0 0 0 0 0 0 0 0 0 0 0 0 0 0 0 0 0 0 0 0 0 0 0 0 0 0 0 0 0
0 0 0 0 0 0 0 0 0 0 0 0 0 0 0 0 0 0 0 0 0 0 0 0 0 0 0 0 0 0 0 0 0 0 0 0 0 0 0 0 0 0 0 0
0 0 0 0 0 0 0 0 0 0 0 0 0 0 0 0 0 0 0 0 0 0 0 0 0 0 0 0 0 0 0 0 0 0 0 0 0 0 0 0 0 0 0 0
Wind_Speed
7 6 4 6 7 7 9 9 9 10 10 12 8 7 7 5 4 4 4 4 3 3 2 2 2 3 3 4 4 4 5 5 5 4 4 4 3 3 3 3 3 3 3 3
5 4 4 7 9 8 9 7 9 9 12 8 6 3 4 4 4 4 4 4 4 3 3 3 3 3 3 4 4 4 5 5 4 4 4 4 4 3 3 3 3 3 3 3
4 4 4 8 7 8 6 6 7 9 9 5 5 5 5 4 4 4 5 4 4 4 3 3 4 4 5 4 4 4 4 4 4 4 4 4 4 3 4 3 3 3 3 3
2 2 7 6 1 4 4 5 6 6 6 5 6 6 5 3 3 5 5 5 4 4 3 3 2 2 3 3 4 4 4 4 4 5 4 4 3 4 4 3 3 3 4 4
2 4 9 7 3 3 4 4 4 5 6 4 4 3 3 2 2 3 4 5 4 4 3 2 2 2 2 3 3 4 4 5 5 5 5 4 4 4 4 3 3 4 3 4
4 4 7 5 1 1 2 3 2 1 3 2 2 3 5 5 4 5 4 3 3 3 2 1 1 2 3 3 3 5 5 5 4 5 5 5 5 4 3 3 4 3 3 4
6 6 9 6 2 2 2 4 3 1 2 1 2 4 6 7 5 4 4 4 3 2 2 2 1 2 3 3 5 4 3 3 4 4 5 5 4 3 3 3 3 3 4 4
5 6 9 2 3 3 4 3 2 2 2 3 5 6 5 5 5 5 5 4 3 2 3 3 1 2 3 4 4 2 3 3 3 4 4 4 4 3 3 4 3 3 3 3
8 7 3 1 2 2 2 2 3 3 4 4 5 6 6 5 5 5 5 4 3 2 3 3 2 2 4 4 2 2 2 3 3 3 3 3 4 4 3 3 3 3 3 4
4 6 4 4 3 3 2 3 4 4 5 4 6 7 6 6 5 5 5 4 3 3 3 4 3 3 3 3 2 2 3 3 3 3 3 3 3 3 3 4 4 4 4 4
5 6 5 3 3 4 5 5 5 5 5 5 6 7 6 6 6 5 5 4 3 3 4 5 3 3 2 2 2 2 2 2 2 3 3 3 3 3 4 4 5 5 4 4
7 5 5 7 5 5 6 6 6 6 6 6 5 7 7 6 5 5 5 4 4 4 4 4 3 3 3 2 2 3 2 2 2 2 2 2 2 2 4 5 7 8 8 7
6 5 6 7 6 5 5 7 7 6 6 7 6 6 6 6 5 4 4 4 4 5 4 4 3 3 3 2 2 3 3 2 2 2 2 2 2 2 2 3 4 6 7 8
5 3 5 5 6 6 6 6 5 5 5 5 5 5 5 4 4 4 5 5 4 4 3 3 3 3 3 2 2 2 2 3 2 2 2 3 3 3 3 3 3 3 4 6
4 4 5 6 6 6 6 5 5 5 5 5 4 4 4 4 5 5 4 3 2 2 2 2 2 3 2 1 1 2 2 2 2 2 2 2 2 2 2 3 3 3 3 3
5 4 4 4 5 6 6 5 5 6 5 5 5 5 5 4 4 4 3 2 1 2 2 2 2 3 2 1 1 1 1 3 2 2 2 2 2 2 3 3 3 3 3 3
3 4 4 5 6 6 5 4 4 5 5 5 5 5 4 3 3 3 3 3 2 2 2 2 2 3 2 1 1 1 1 1 2 2 2 2 2 2 3 3 3 4 4 4
3 4 4 4 5 6 6 5 4 5 5 5 5 4 3 3 3 4 3 3 3 3 3 2 2 2 2 1 1 1 1 1 1 2 2 2 2 2 3 3 4 4 4 4
3 3 4 4 3 3 4 4 4 4 4 4 3 3 3 3 2 3 3 3 3 3 4 3 4 2 2 2 2 1 1 1 2 2 2 3 3 2 3 3 4 4 4 4
4 4 4 4 4 3 3 4 4 4 4 3 3 3 3 3 3 2 2 2 2 3 3 4 3 2 2 2 2 1 1 1 2 2 2 2 3 3 3 3 4 4 4 4
5 5 5 5 5 4 3 3 3 4 4 3 2 3 3 4 3 2 2 3 4 3 3 4 3 2 2 3 3 1 1 2 2 3 3 3 3 3 3 3 4 4 4 4
4 4 5 5 5 5 4 4 3 4 4 4 3 3 3 3 3 3 2 3 4 6 4 2 2 4 5 5 2 2 2 2 3 2 3 3 3 3 4 4 4 4 4 4
4 4 4 4 4 5 5 4 4 3 4 4 4 4 4 4 3 3 4 3 3 6 4 3 5 8 8 4 2 2 2 3 3 3 3 3 3 4 4 4 4 4 4 4
4 4 4 4 4 4 5 5 5 4 4 4 4 4 4 4 3 2 3 6 8 8 4 6 9 9 7 2 2 2 3 3 3 3 3 4 4 4 4 4 4 4 4 5
4 4 4 4 4 4 4 5 5 4 4 4 4 4 3 3 3 4 4 4 7 7 4 6 9 8 4 3 3 3 3 4 4 4 3 4 4 4 4 4 4 4 4 4
4 4 4 4 4 4 4 4 4 4 4 5 5 4 3 3 3 4 3 4 5 7 5 4 4 5 3 3 4 4 4 4 5 4 4 4 4 5 4 5 6 5 5 5
4 4 3 4 3 3 4 4 4 5 5 5 6 5 4 4 4 4 4 4 4 4 4 4 4 4 4 4 4 4 4 4 4 4 4 4 4 4 5 5 5 5 4 5
Wind_Direction
254 263 248 243 239 214 209 214 225 249 257 276 291 292 301 309 318 329 322 313 291 266 251 236 213 199 190 187 179 169 165 173 186 181 172 168 171 174 171 173 183 183 181 189
282 270 255 264 253 228 228 230 241 264 273 275 288 304 317 320 324 317 309 304 295 280 261 243 223 206 195 190 181 169 174 185 180 169 169 174 179 175 174 182 186 181 190 195
273 305 322 274 242 208 211 214 206 236 259 301 312 310 302 299 309 297 296 298 295 286 266 249 230 208 200 194 175 172 180 182 178 173 177 184 180 176 187 195 191 197 208 206
270 348 250 248 224 185 204 244 223 247 279 288 278 286 280 267 286 302 305 303 297 294 291 278 244 217 193 168 170 176 182 187 183 177 182 183 181 194 202 197 198 207 216 217
195 248 273 289 261 184 194 269 229 239 277 303 307 330 314 290 299 286 287 288 282 274 269 271 259 205 168 171 173 180 193 198 193 184 184 187 197 206 205 197 206 213 216 215
187 222 248 255 264 199 129 284 288 248 283 309 10 1 292 311 316 304 303 297 294 297 294 281 267 170 168 188 192 207 211 207 196 187 188 198 205 208 205 201 209 211 223 220
208 234 262 261 265 111 164 260 308 293 282 264 246 242 273 305 308 303 305 306 306 306 295 275 245 171 189 205 221 224 207 197 194 193 197 200 200 202 198 200 204 216 230 233
186 216 253 259 120 164 226 277 296 290 276 273 274 281 289 298 301 309 312 313 311 304 299 295 249 190 216 233 236 210 193 197 204 203 201 194 191 199 195 193 206 223 232 249
197 217 248 212 205 255 250 275 286 283 288 286 284 286 292 294 297 300 299 302 300 287 294 298 269 221 234 247 221 197 198 208 214 211 207 197 195 197 196 195 205 219 224 244
253 265 269 278 278 287 276 267 277 281 286 283 279 285 291 292 296 298 296 298 301 297 291 291 283 259 245 247 215 195 208 216 208 206 213 209 204 197 198 202 211 222 226 237
258 280 305 298 281 285 292 290 286 286 281 276 277 283 283 285 288 289 292 295 294 285 281 282 283 274 265 239 209 212 224 228 221 215 209 211 216 214 213 216 210 216 224 223
247 250 255 275 285 289 290 292 293 296 297 291 274 276 281 280 278 280 284 287 286 281 279 282 281 275 269 242 210 203 221 225 218 208 209 210 223 270 253 244 250 246 243 239
251 267 264 276 288 292 287 289 290 285 281 289 289 277 276 279 281 280 279 276 274 275 278 281 282 280 276 248 207 204 216 223 216 206 210 216 219 228 270 287 269 262 258 257
266 278 279 280 287 294 291 291 293 291 290 289 291 293 286 283 287 285 280 278 279 281 284 283 282 283 283 258 220 221 226 232 223 216 216 220 221 223 227 245 277 286 277 270
287 270 263 279 289 294 297 302 305 304 308 313 313 308 301 295 290 290 295 297 295 293 295 295 290 294 302 279 243 236 232 232 226 224 223 222 221 222 228 236 249 266 284 286
297 294 289 290 296 303 307 306 299 299 305 307 311 311 307 300 297 302 307 304 296 292 297 298 295 300 308 292 262 253 243 241 238 225 224 223 224 228 237 243 251 259 264 269
307 307 311 309 308 307 304 298 293 294 300 302 302 305 311 317 320 321 323 327 316 299 307 312 309 316 318 297 254 253 258 258 255 239 230 232 233 236 240 243 248 256 260 264
276 276 279 282 291 301 309 314 310 305 301 300 307 314 318 316 313 316 326 341 352 348 336 326 319 325 326 321 296 260 253 260 253 242 242 238 242 238 242 248 255 263 272 278
333 321 318 317 313 313 313 316 317 316 315 317 318 318 315 315 314 316 330 343 341 330 323 327 327 329 317 309 311 264 253 262 270 263 252 260 266 253 251 255 261 264 269 275
350 346 342 341 343 339 326 323 327 330 329 332 332 332 329 324 324 324 331 314 290 282 300 314 321 314 308 306 314 290 270 265 269 273 269 263 259 260 259 262 265 269 274 276
345 348 349 346 341 340 333 327 330 327 327 333 324 309 306 309 313 314 315 307 309 311 308 312 316 310 306 301 301 280 268 267 267 268 270 270 271 271 271 271 272 274 275 276
338 339 337 336 334 332 330 330 326 323 326 326 319 308 309 314 318 311 279 267 290 309 315 305 301 301 304 305 288 275 271 269 270 272 270 270 270 273 274 273 273 275 275 275
324 325 326 327 323 318 326 333 331 327 322 316 314 310 303 298 298 297 300 301 299 307 310 292 298 305 310 310 290 278 273 270 270 268 267 267 268 269 271 273 273 272 272 271
321 321 318 317 321 328 327 323 323 317 308 304 302 300 297 301 301 278 273 297 306 307 302 299 306 309 312 302 283 275 270 268 266 264 264 265 266 265 265 268 271 271 268 270
316 315 318 323 323 314 309 312 317 316 314 310 307 303 296 280 279 292 295 295 303 310 304 306 311 312 310 288 279 273 271 268 268 268 261 264 266 266 266 266 266 267 269 269
316 315 311 305 299 300 305 310 309 309 310 310 310 309 305 299 292 292 295 295 296 305 303 296 298 304 295 288 284 281 277 281 285 279 269 269 268 269 270 270 268 266 267 267
316 313 312 312 311 307 303 301 300 302 304 303 304 306 306 306 305 302 300 299 299 298 296 294 292 289 287 286 286 285 283 280 276 273 272 269 268 268 270 270 271 271 271 270